Regional Weather Roundup
Issued by NWS

Home | Current Version | Previous Version | Text Only | Print | Product List | Glossary Off
Versions: 1 2 3 4 5 6 7 8 9 10 11 12 13 14 15 16 17 18 19 20 21 22 23 24 25 26 27 28 29 30 31 32 33 34 35 36 37 38 39 40 41 42 43 44 45 46 47 48 49 50

080
ASUS45 KCYS 252210
RWRWY

WYOMING REGIONAL WEATHER ROUNDUP
NATIONAL WEATHER SERVICE CHEYENNE WY
300 PM MST SAT FEB 25 2017

NOTE:  "FAIR" INDICATES FEW OR NO CLOUDS BELOW 12,000 FEET
WITH NO SIGNIFICANT WEATHER AND/OR OBSTRUCTIONS TO VISIBILITY.

WYZ001-252300-
YELLOWSTONE NATIONAL PARK

CITY           SKY/WX    TMP DP  RH WIND       PRES   REMARKS
LK YELLOWSTONE   N/A     13  -1  54 W16G25    29.71F WCI  -3
W YELLOWSTONE  NOT AVBL

$$
WYZ002>013-054>058-071-098>099-252300-
NORTHERN WYOMING

CITY           SKY/WX    TMP DP  RH WIND       PRES   REMARKS
JACKSON        LGT SNOW  18  10  73 S13       29.84F WCI   4
CODY           FAIR      29   3  33 W21G33    29.71F WCI  16
GREYBULL       CLOUDY    31  17  56 S10       29.74F WCI  22
WORLAND        PTSUNNY   29  12  49 S10       29.75F WCI  20
SHERIDAN       FAIR      31  16  54 S12G18    29.71F WCI  22
BUFFALO        FAIR      25  13  60 S3        29.69F
GILLETTE       FAIR      29  12  49 SW9       29.70F WCI  20
HULETT         CLOUDY    30  23  74 SW8       29.72F WCI  23
NEWCASTLE      FAIR      25  18  74 SE9       29.77F WCI  15

$$
WYZ014>020-022>026-101>103-252300-
CENTRAL WYOMING

CITY           SKY/WX    TMP DP  RH WIND       PRES   REMARKS
BIG PINEY      CLOUDY    12   4  70 CALM      29.83F
PINEDALE       MOCLDY    14   1  57 CALM      29.83F
DUBOIS         CLOUDY    14   1  57 NW32G44   29.67S HAZE    WCI  -7
LANDER         FAIR      21   1  41 NE3       29.74F
RIVERTON       FAIR      20   2  45 S9        29.76F WCI   9
CASPER         FLURRIES  20   9  62 SW28      29.75F WCI   2
DOUGLAS        FAIR      24  11  57 W12       29.76F WCI  13

$$
WYZ021-027>030-104>119-252300-
SOUTHERN WYOMING

CITY           SKY/WX    TMP DP  RH WIND       PRES   REMARKS
EVANSTON       LGT SNOW  17  10  74 W20       29.88F WCI   1
FORT BRIDGER   FAIR      21  11  67 W22G31    29.90F WCI   5
ROCK SPRINGS   FAIR      19   9  65 W23       29.84F WCI   2
DIXON            N/A     23   5  46 W13G24    29.91F WCI  11
RAWLINS        FAIR      18   8  65 SW31G40   29.79F HAZE    WCI  -2
SARATOGA       FAIR      18   9  68 W23G30    29.81S WCI   0
LARAMIE        FAIR      18   4  54 W18G32    29.75R WCI   2
CHEYENNE       FAIR      23   5  46 W21G29    29.77F WCI   8
TORRINGTON     FAIR      26  11  52 W10       29.82F WCI  16
PINE BLUFFS    FAIR      30   9  40 SW9       29.81F WCI  22

$$




USA.gov is the U.S. government's official web portal to all federal, state and local government web resources and services.